Tracking 25710 objects as of 5-Jul-2022
HD Live streaming from Space Station
objects crossing your sky now

ORBCOMM FM 34

Track ORBCOMM FM 34 now!
10-day predictions
ORBCOMM FM 34 is classified as:


NORAD ID: 25986
Int'l Code: 1999-065G
Perigee: 784.5 km
Apogee: 791.3 km
Inclination: 45.0 °
Period: 100.5 minutes
Semi major axis: 7158 km
RCS: 0.5409 m2 (medium)
Launch date: December 4, 1999
Source: ORBCOMM (ORB)
Launch site: AIR FORCE EASTERN TEST RANGE (AFETR)
aabbcc
Your satellite tracking list
Your tracking list is empty




NASA's NSSDC Master Catalog

Two Line Element Set (TLE):
1 25986U 99065G   22185.34351617  .00000219  00000-0  12975-3 0  9996
2 25986  45.0393 141.8397 0004804 336.1191  23.9432 14.33286863179957
Source of the keplerian elements: AFSPC